Hourly Data Report for October 07, 2014

All times are specified in Local Standard Time (LST). Add 1 hour to adjust for Daylight Saving Time where and when it is observed.

OTTAWA INTL A
ONTARIO

45°19'00.000" N
75°40'00.000" W
114.90 m
6106001
71628
YOW

Download Data

Hourly Data (October 2014)
Hourly Data Report for October 7, 2014
Temp Definition
°C
Dew Point Temp Definition
°C
Rel Hum Definition
%
Wind Dir Definition
10's deg

Wind Spd Definition
km/h
Visibility Definition
km
Stn Press Definition
kPa
Hmdx Definition


Wind Chill Definition


Weather Definition


TIME
00:00 Legend Double Dagger 11.8 9.4 85 13 22 16.1 99.54     LegendNANA
01:00 Legend Double Dagger 11.7 10.1 90 14 22 16.1 99.49     Rain
02:00 Legend Double Dagger 11.9 10.3 90 16 15 24.1 99.50     LegendNANA
03:00 Legend Double Dagger 13.2 10.4 83 17 10 24.1 99.46     LegendNANA
04:00 Legend Double Dagger 13.8 10.3 79 17 20 24.1 99.45     Mostly Cloudy
05:00 Legend Double Dagger 13.7 10.4 80 17 19 24.1 99.46     LegendNANA
06:00 Legend Double Dagger 13.1 11.2 88 19 18 16.1 99.48     Rain
07:00 Legend Double Dagger 12.6 11.7 94 17 21 24.1 99.52     Rain
08:00 Legend Double Dagger 11.9 10.2 89 23 23 3.2 99.62     Rain Showers,Fog
09:00 Legend Double Dagger 10.8 9.9 94 18 7 24.1 99.64     Rain Showers
10:00 Legend Double Dagger 12.2 11.6 96 17 10 24.1 99.69     Mainly Clear
11:00 Legend Double Dagger 14.1 12.0 87 20 10 24.1 99.69     Rain Showers
12:00 Legend Double Dagger 15.4 10.8 74 20 17 24.1 99.71     LegendNANA
13:00 Legend Double Dagger 16.0 11.2 73 19 16 24.1 99.66     Mostly Cloudy
14:00 Legend Double Dagger 17.0 11.3 69 18 22 24.1 99.66     LegendNANA
15:00 Legend Double Dagger 13.8 11.0 83 25 7 24.1 99.66     LegendNANA
16:00 Legend Double Dagger 15.7 10.3 70 22 4 24.1 99.65     Mainly Clear
17:00 Legend Double Dagger 15.3 9.1 66 19 8 24.1 99.63     LegendNANA
18:00 Legend Double Dagger 13.8 8.7 71 17 9 24.1 99.63     LegendNANA
19:00 Legend Double Dagger 13.2 8.5 73 15 10 24.1 99.60     Mostly Cloudy
20:00 Legend Double Dagger 11.7 8.8 82 12 13 24.1 99.57     LegendNANA
21:00 Legend Double Dagger 11.9 9.0 82 10 11 24.1 99.52     LegendNANA
22:00 Legend Double Dagger 12.1 9.2 82 9 12 24.1 99.44     Cloudy
23:00 Legend Double Dagger 12.5 9.2 80 11 13 24.1 99.32     Rain

Notes on Data Quality.

Legend

  • E = Estimated
  • M = Missing
  • NA = Not Available
  • ‡ = Partner data that is not subject to review by the National Climate Archives
Date modified: